Location: Unspecified
(43.4354°N, 0.0000°E)
Time: 22:55:12
(UTC+00:00)

Courier 1B - Pass Details

Date: 21 June 2019
Orbit: 963 x 1209 km, 28.3° (Epoch: 19 July)

Event Time Altitude Azimuth Distance (km) Brightness Sun altitude
Rises 19:20:36 0° 232° (SW) 3,880 10.9 2.8°
Reaches altitude 10° 19:23:56 10° 218° (SW) 2,968 10.2 2.3°
Maximum altitude 19:29:23 23° 170° (S) 2,231 9.1 1.4°
Drops below altitude 10° 19:35:03 10° 122° (ESE) 3,091 9.5 0.6°
Sets 19:38:36 0° 109° (ESE) 4,081 10.1 0.0°
